TimeCST,TemperatureF,Dew PointF,Humidity,Sea Level PressureIn,VisibilityMPH,Wind Direction,Wind SpeedMPH,Gust SpeedMPH,PrecipitationIn,Events,Conditions,WindDirDegrees,DateUTC
12:14 AM,-14.8,-22.0,70,30.24,10.0,WNW,11.5,-,N/A,,Clear,290,2013-02-01 06:14:00
12:33 AM,-16.6,-22.0,76,30.24,10.0,WNW,9.2,-,N/A,,Clear,290,2013-02-01 06:33:00
12:53 AM,-16.6,-22.0,76,30.23,10.0,WNW,5.8,-,N/A,,Clear,290,2013-02-01 06:53:00
1:14 AM,-16.6,-22.0,76,30.22,10.0,Calm,Calm,-,N/A,,Clear,0,2013-02-01 07:14:00
1:33 AM,-16.6,-23.8,70,30.22,10.0,West,3.5,-,N/A,,Clear,280,2013-02-01 07:33:00
1:53 AM,-16.6,-23.8,70,30.23,10.0,West,6.9,-,N/A,,Clear,270,2013-02-01 07:53:00
2:14 AM,-16.6,-23.8,70,30.23,10.0,West,6.9,-,N/A,,Clear,260,2013-02-01 08:14:00
2:33 AM,-16.6,-23.8,70,30.23,10.0,West,9.2,-,N/A,,Clear,260,2013-02-01 08:33:00
3:14 AM,-16.6,-23.8,70,30.23,10.0,West,8.1,-,N/A,,Clear,260,2013-02-01 09:14:00
3:33 AM,-18.4,-22.0,84,30.23,10.0,West,9.2,-,N/A,,Clear,260,2013-02-01 09:33:00
3:53 AM,-16.6,-22.0,76,30.23,10.0,WSW,8.1,-,N/A,,Clear,250,2013-02-01 09:53:00
4:13 AM,-16.6,-22.0,76,30.23,10.0,WSW,9.2,-,N/A,,Clear,250,2013-02-01 10:13:00
4:33 AM,-16.6,-22.0,76,30.23,10.0,WSW,9.2,-,N/A,,Clear,250,2013-02-01 10:33:00
4:54 AM,-16.6,-22.0,76,30.23,10.0,WSW,8.1,-,N/A,,Clear,250,2013-02-01 10:54:00
5:13 AM,-18.4,-22.0,84,30.22,10.0,WSW,6.9,-,N/A,,Clear,250,2013-02-01 11:13:00
5:33 AM,-18.4,-23.8,76,30.22,10.0,West,6.9,-,N/A,,Clear,260,2013-02-01 11:33:00
5:54 AM,-18.4,-23.8,76,30.21,10.0,WSW,5.8,-,N/A,,Clear,250,2013-02-01 11:54:00
6:13 AM,-18.4,-23.8,76,30.21,10.0,WSW,5.8,-,N/A,,Clear,250,2013-02-01 12:13:00
6:33 AM,-18.4,-23.8,76,30.20,10.0,West,4.6,-,N/A,,Clear,260,2013-02-01 12:33:00
6:54 AM,-18.4,-23.8,76,30.20,10.0,West,5.8,-,N/A,,Clear,260,2013-02-01 12:54:00
7:13 AM,-18.4,-23.8,76,30.21,10.0,WSW,5.8,-,N/A,,Clear,240,2013-02-01 13:13:00
7:33 AM,-18.4,-23.8,76,30.20,10.0,WSW,4.6,-,N/A,,Clear,250,2013-02-01 13:33:00
7:54 AM,-18.4,-23.8,76,30.19,10.0,Calm,Calm,-,N/A,,Clear,0,2013-02-01 13:54:00
8:13 AM,-18.4,-23.8,76,30.19,10.0,Calm,Calm,-,N/A,,Clear,0,2013-02-01 14:13:00
8:33 AM,-18.4,-23.8,76,30.17,10.0,Calm,Calm,-,N/A,,Clear,0,2013-02-01 14:33:00
8:54 AM,-16.6,-22.0,76,30.17,10.0,Calm,Calm,-,N/A,,Clear,0,2013-02-01 14:54:00
9:13 AM,-14.8,-20.2,77,30.16,10.0,Calm,Calm,-,N/A,,Clear,0,2013-02-01 15:13:00
9:34 AM,-14.8,-20.2,77,30.15,10.0,Calm,Calm,-,N/A,,Clear,0,2013-02-01 15:34:00
9:53 AM,-13.0,-18.4,77,30.15,10.0,Calm,Calm,-,N/A,,Clear,0,2013-02-01 15:53:00
10:13 AM,-11.2,-18.4,70,30.16,10.0,Calm,Calm,-,N/A,,Clear,0,2013-02-01 16:13:00
10:34 AM,-9.4,-16.6,71,30.15,10.0,South,4.6,-,N/A,,Scattered Clouds,190,2013-02-01 16:34:00
10:53 AM,-9.4,-16.6,71,30.15,10.0,South,4.6,-,N/A,,Scattered Clouds,180,2013-02-01 16:53:00
11:13 AM,-7.6,-16.6,65,30.15,10.0,South,8.1,-,N/A,,Mostly Cloudy,180,2013-02-01 17:13:00
11:34 AM,-7.6,-14.8,71,30.15,10.0,South,9.2,-,N/A,,Overcast,190,2013-02-01 17:34:00
11:53 AM,-5.8,-14.8,65,30.13,10.0,South,8.1,-,N/A,,Mostly Cloudy,170,2013-02-01 17:53:00
12:13 PM,-5.8,-14.8,65,30.11,10.0,South,5.8,-,N/A,,Overcast,180,2013-02-01 18:13:00
12:34 PM,-5.8,-13.0,71,30.10,10.0,SSE,6.9,-,N/A,,Overcast,150,2013-02-01 18:34:00
12:53 PM,-4.0,-11.2,71,30.09,5.0,South,9.2,-,N/A,Snow,Light Snow,170,2013-02-01 18:53:00
1:13 PM,-2.2,-11.2,66,30.08,2.5,SSE,8.1,-,N/A,Snow,Light Snow,150,2013-02-01 19:13:00
1:34 PM,-2.2,-9.4,71,30.07,2.5,South,6.9,-,N/A,Snow,Light Snow,170,2013-02-01 19:34:00
1:53 PM,-2.2,-9.4,71,30.06,5.0,SSE,9.2,-,N/A,Snow,Light Snow,160,2013-02-01 19:53:00
2:13 PM,-2.2,-7.6,78,30.04,5.0,SSE,6.9,-,N/A,Snow,Light Snow,150,2013-02-01 20:13:00
2:33 PM,-2.2,-7.6,78,30.04,5.0,SSE,9.2,-,N/A,Snow,Light Snow,150,2013-02-01 20:33:00
2:53 PM,-0.4,-7.6,72,30.04,4.0,SSE,8.1,-,N/A,Snow,Light Snow,150,2013-02-01 20:53:00
3:13 PM,-0.4,-7.6,72,30.02,2.5,ESE,9.2,-,N/A,Snow,Light Snow,120,2013-02-01 21:13:00
3:33 PM,-0.4,-5.8,78,30.02,1.5,ESE,11.5,-,N/A,Snow,Light Snow,120,2013-02-01 21:33:00
3:53 PM,-0.4,-5.8,78,30.02,3.0,SE,10.4,-,N/A,Snow,Light Snow,130,2013-02-01 21:53:00
4:13 PM,-0.4,-5.8,78,30.01,3.0,ESE,10.4,-,N/A,Snow,Light Snow,120,2013-02-01 22:13:00
4:33 PM,-0.4,-5.8,78,30.00,2.0,ESE,10.4,-,N/A,Snow,Light Snow,110,2013-02-01 22:33:00
4:53 PM,-0.4,-5.8,78,30.00,7.0,ESE,9.2,-,N/A,Snow,Light Snow,120,2013-02-01 22:53:00
5:13 PM,-0.4,-5.8,78,29.99,4.0,ESE,9.2,-,N/A,Snow,Light Snow,120,2013-02-01 23:13:00
5:33 PM,-0.4,-5.8,78,29.99,3.0,SE,10.4,-,N/A,Snow,Light Snow,130,2013-02-01 23:33:00
5:53 PM,-0.4,-4.0,85,30.01,3.0,SE,6.9,-,N/A,Snow,Light Snow,130,2013-02-01 23:53:00
6:13 PM,-0.4,-4.0,85,30.02,5.0,SE,4.6,-,N/A,Snow,Light Snow,130,2013-02-02 00:13:00
6:33 PM,-0.4,-4.0,85,30.01,5.0,ESE,4.6,-,N/A,Snow,Light Snow,110,2013-02-02 00:33:00
6:53 PM,1.4,-4.0,78,30.01,2.0,ESE,5.8,-,N/A,Snow,Light Snow,120,2013-02-02 00:53:00
7:14 PM,1.4,-2.2,85,30.01,3.0,East,4.6,-,N/A,Snow,Light Snow,90,2013-02-02 01:14:00
8:14 PM,1.4,-4.0,78,30.00,4.0,East,4.6,-,N/A,Snow,Light Snow,90,2013-02-02 02:14:00
8:33 PM,1.4,-4.0,78,30.00,7.0,East,5.8,-,N/A,Snow,Light Snow,90,2013-02-02 02:33:00
8:53 PM,-0.4,-4.0,85,30.00,7.0,East,4.6,-,N/A,Snow,Light Snow,90,2013-02-02 02:53:00
9:14 PM,-0.4,-4.0,85,30.00,7.0,East,5.8,-,N/A,Snow,Light Snow,90,2013-02-02 03:14:00
9:33 PM,-0.4,-4.0,85,30.00,10.0,ENE,4.6,-,N/A,Snow,Light Snow,70,2013-02-02 03:33:00
9:53 PM,-0.4,-4.0,85,30.01,10.0,NE,4.6,-,N/A,Snow,Light Snow,40,2013-02-02 03:53:00
10:14 PM,-0.4,-4.0,85,30.01,7.0,ENE,4.6,-,N/A,Snow,Light Snow,70,2013-02-02 04:14:00
10:33 PM,-0.4,-5.8,78,30.02,7.0,ENE,4.6,-,N/A,Snow,Light Snow,60,2013-02-02 04:33:00
10:53 PM,-0.4,-5.8,78,30.02,7.0,ENE,3.5,-,N/A,Snow,Light Snow,60,2013-02-02 04:53:00
11:14 PM,-0.4,-5.8,78,30.03,7.0,Calm,Calm,-,N/A,Snow,Light Snow,0,2013-02-02 05:14:00
11:53 PM,-0.4,-5.8,78,30.04,10.0,Calm,Calm,-,N/A,Snow,Light Snow,0,2013-02-02 05:53:00